Flag for United Kingdom Weather past 2 weeks in London, England, United Kingdom

Now
41 °F

Scattered clouds.


Feels Like: 33 °F
Forecast: 40 / 46 °F
Wind: 14 mph from West

Location: Northolt

Current Time: Mar 3, 2015 at 9:35:38 AM

Latest Report: Mar 3, 2015 at 8:50 AM


Visibility: N/A

Pressure: 29.92 "Hg

Humidity: 87%

Dew point: 37 °F

Location of LondonLocation

Historic Weather in London — Graph

°F

London temperature yesterday

Maximum temperature yesterday: 46 °F (at 12:50 PM)
Minimum temperature yesterday: 36 °F (at 2:50 AM)
Average temperature yesterday: 41 °F

Past Weeks' High & Low Weather Summary

 TemperatureHumidityPressure
High54 °F (Feb 25, 3:50 PM)100% (Feb 16, 3:50 PM)30.74 "Hg (Feb 16, 3:50 PM)
Low27 °F (Feb 22, 5:50 AM)29% (Mar 2, 3:50 PM)29.24 "Hg (Feb 22, 9:50 PM)
Average43 °F78%29.87 "Hg
* Reported Feb 16 7:50 AM — Mar 3 7:50 AM, London, Weather by CustomWeather, © 2015

Note: Actual official high and low records may vary slightly from our data, if they occured in-between our weather recording intervals... More about our weather records

Advertising

London weather history for previous 24 hours

 ConditionsComfort  
Time TempWeatherWind HumidityBarometerVisibility
7:50 AM
Tue, Mar 3
41 °FBroken clouds.7 mph87%29.89 "HgN/A
6:50 AM39 °FPartly sunny.10 mph87%29.89 "HgN/A
5:50 AM39 °FPartly cloudy.8 mph81%29.89 "HgN/A
4:50 AM37 °FPassing clouds.5 mph87%29.92 "HgN/A
3:50 AM37 °FPassing clouds.5 mph81%29.95 "HgN/A
2:50 AM36 °FPassing clouds.3 mph87%29.95 "HgN/A
1:50 AM37 °FPassing clouds.6 mph81%29.98 "HgN/A
12:50 AM37 °FClear.8 mph81%29.98 "HgN/A
11:50 PM
Mon, Mar 2
39 °FClear.13 mph70%29.98 "Hg10 mi
10:50 PM39 °FClear.17 mph70%29.98 "Hg10 mi
9:50 PM39 °FClear.13 mph70%29.98 "Hg10 mi
8:50 PM39 °FClear.14 mph70%29.95 "Hg10 mi
7:50 PM41 °FClear.15 mph66%29.95 "Hg10 mi
6:50 PM41 °FClear.14 mph53%29.92 "Hg10 mi
5:50 PM43 °FPassing clouds.16 mph42%29.89 "HgN/A
4:50 PM46 °FSunny.18 mph40%29.89 "Hg10 mi
3:50 PM46 °FSunny.26 mph29%29.86 "Hg10 mi
2:50 PM46 °FSunny.25 mph32%29.83 "Hg10 mi
1:50 PM46 °FSunny.26 mph34%29.80 "Hg10 mi
12:50 PM46 °FSunny.24 mph40%29.77 "Hg10 mi
11:50 AM45 °FSunny.26 mph42%29.74 "Hg10 mi
10:50 AM45 °FScattered clouds.24 mph53%29.71 "HgN/A
9:50 AM41 °FScattered clouds.22 mph66%29.68 "HgN/A
Weather by CustomWeather, © 2015

See weather overviewHow to use our weather pages